Location: Unspecified
(0.0000°N, 0.0000°E)
Time: 13:49:27
(UTC+00:00)

Courier 1B Rocket - All Passes

Search period start: 23 February 2017 00:00
Search period end: 05 March 2017 00:00
Orbit: 920 x 1202 km, 28.2° (Epoch: 23 February)

Date Brightness Start Highest point End Pass type
(mag) Time Alt. Az. Time Alt. Az. Time Alt. Az.
23 Feb - 01:49:12 10° SW 01:51:09 11° SSW 01:53:08 10° S night (unlit)
23 Feb - 07:34:30 10° S 07:38:08 14° SSE 07:41:50 10° SE daylight
23 Feb - 09:25:21 10° SW 09:32:22 46° SSE 09:39:43 10° E daylight
23 Feb - 11:18:45 10° WSW 11:26:15 58° NNW 11:33:56 10° NE daylight
23 Feb - 13:15:16 10° WNW 13:20:35 19° NNW 13:25:53 10° NNE daylight
23 Feb - 19:06:42 10° N 19:08:14 11° NNE 19:09:45 10° NNE visible
23 Feb - 20:56:41 10° NW 21:02:41 34° NNE 21:08:23 10° E visible
23 Feb - 22:49:47 10° WNW 22:56:12 65° SSW 23:02:24 10° SE night (unlit)
24 Feb - 00:45:51 10° WSW 00:49:51 17° SSW 00:53:51 10° SSE night (unlit)
24 Feb - 08:24:51 10° SSW 08:31:04 31° SSE 08:37:36 10° E daylight
24 Feb - 10:17:26 10° WSW 10:24:55 83° NNW 10:32:46 10° ENE daylight
24 Feb - 12:12:41 10° W 12:19:02 27° NNW 12:25:28 10° NNE daylight
24 Feb - 19:56:06 10° NNW 20:01:27 23° NNE 20:06:32 10° ENE visible
24 Feb - 21:48:32 10° WNW 21:55:13 82° NNE 22:01:33 10° ESE visible
24 Feb - 23:43:27 10° W 23:48:41 26° SSW 23:53:49 10° SSE night (unlit)
25 Feb - 07:24:42 10° SSW 07:29:44 21° SSE 07:35:00 10° ESE daylight
25 Feb - 09:16:25 10° SW 09:23:40 68° SSE 09:31:20 10° ENE daylight
25 Feb - 11:10:38 10° W 11:17:34 39° NNW 11:24:45 10° NE daylight
25 Feb - 13:08:42 10° NW 13:12:17 14° NNW 13:15:51 10° N daylight
25 Feb - 18:55:45 10° NNW 19:00:03 17° NNE 19:04:12 10° ENE visible
25 Feb - 20:47:30 10° NW 20:54:10 53° NNE 21:00:26 10° ESE visible
25 Feb - 22:41:32 10° W 22:47:38 41° SSW 22:53:30 10° SE night (unlit)
26 Feb - 00:39:54 10° SW 00:41:35 11° SSW 00:43:15 10° S night (unlit)
26 Feb - 06:25:07 10° S 06:28:19 14° SSE 06:31:37 10° SE daylight
26 Feb - 08:15:43 10° SW 08:22:26 46° SSE 08:29:34 10° E daylight
26 Feb - 10:09:01 10° WSW 10:16:13 56° NNW 10:23:48 10° NE daylight
26 Feb - 12:05:27 10° WNW 12:10:35 19° NNW 12:15:48 10° NNE daylight
26 Feb - 17:55:50 10° N 17:58:28 12° NNE 18:01:03 10° NE daylight
26 Feb - 19:46:37 10° NW 19:53:01 36° NNE 19:59:01 10° E visible
26 Feb - 21:39:55 10° WNW 21:46:37 64° SSW 21:52:56 10° SE visible
26 Feb - 23:36:15 10° WSW 23:40:17 17° SSW 23:44:15 10° SSE night (unlit)
27 Feb - 07:15:18 10° SSW 07:21:13 30° SSE 07:27:28 10° E daylight
27 Feb - 09:07:46 10° WSW 09:14:57 81° NNW 09:22:37 10° ENE daylight
27 Feb - 11:02:56 10° W 11:09:01 26° NNW 11:15:19 10° NNE daylight
27 Feb - 18:45:54 10° NNW 18:51:43 25° NNE 18:57:13 10° E visible
27 Feb - 20:38:33 10° WNW 20:45:35 84° NNE 20:52:07 10° ESE visible
27 Feb - 22:33:41 10° W 22:39:06 26° SSW 22:44:20 10° SSE night (unlit)
28 Feb - 06:15:14 10° SSW 06:19:58 20° SSE 06:24:53 10° ESE daylight
28 Feb - 08:06:50 10° SW 08:13:45 69° SSE 08:21:10 10° ENE daylight
28 Feb - 10:00:58 10° W 10:07:35 37° NNW 10:14:34 10° NE daylight
28 Feb - 11:59:01 10° NW 12:02:19 13° NNW 12:05:39 10° N daylight
28 Feb - 17:45:24 10° NNW 17:50:15 18° NNE 17:54:56 10° ENE daylight
28 Feb - 19:37:24 10° NW 19:44:27 56° NNE 19:51:02 10° ESE visible
28 Feb - 21:31:38 10° W 21:38:01 41° SSW 21:44:02 10° SE visible
28 Feb - 23:30:13 10° SW 23:31:59 11° SSW 23:33:44 10° S night (unlit)
01 Mar - 05:15:48 10° S 05:18:37 13° SSE 05:21:30 10° SE visible
01 Mar - 07:06:12 10° SW 07:12:36 45° SSE 07:19:27 10° E daylight
01 Mar - 08:59:25 10° WSW 09:06:17 54° NNW 09:13:37 10° NE daylight
01 Mar - 10:55:49 10° WNW 11:00:37 18° NNW 11:05:34 10° NNE daylight
01 Mar - 16:45:16 10° N 16:48:38 13° NNE 16:51:56 10° NE daylight
01 Mar - 18:36:26 10° NW 18:43:14 38° NNE 18:49:36 10° E visible
01 Mar - 20:29:55 10° WNW 20:36:57 63° SSW 20:43:29 10° SE visible
01 Mar - 22:26:25 10° WSW 22:30:40 17° SSW 22:34:47 10° SSE night (unlit)
02 Mar - 06:05:50 10° SSW 06:11:28 30° SSE 06:17:24 10° E daylight
02 Mar - 07:58:14 10° WSW 08:05:04 79° NNW 08:12:27 10° NE daylight
02 Mar - 09:53:22 10° WNW 09:59:05 25° NNW 10:05:05 10° NNE daylight
02 Mar - 17:35:39 10° NNW 17:41:52 27° NNE 17:47:47 10° E daylight
02 Mar - 19:28:27 10° WNW 19:35:50 87° NNE 19:42:40 10° ESE visible
02 Mar - 21:23:45 10° W 21:29:27 27° SSW 21:34:52 10° SSE visible
03 Mar - 05:05:48 10° SSW 05:10:16 19° SSE 05:14:54 10° ESE visible
03 Mar - 06:57:20 10° SW 07:03:57 70° SSE 07:11:03 10° ENE daylight
03 Mar - 08:51:27 10° W 08:57:41 35° NNW 09:04:21 10° NE daylight
03 Mar - 10:49:38 10° NW 10:52:24 12° NNW 10:55:12 10° N daylight
03 Mar - 16:35:05 10° NNW 16:40:21 20° NNE 16:45:28 10° ENE daylight
03 Mar - 18:27:14 10° NW 18:34:38 59° NNE 18:41:33 10° ESE visible
03 Mar - 20:21:36 10° W 20:28:18 41° SSW 20:34:35 10° SE visible
03 Mar - 22:20:12 10° SW 22:22:21 12° SSW 22:24:29 10° S visible
04 Mar - 04:06:27 10° S 04:08:59 12° SSE 04:11:32 10° SE visible
04 Mar - 05:56:44 10° SW 06:02:53 45° SSE 06:09:25 10° ENE daylight
04 Mar - 07:49:56 10° WSW 07:56:26 51° NNW 08:03:26 10° NE daylight
04 Mar - 09:46:23 10° WNW 09:50:45 17° NNW 09:55:14 10° NNE daylight
04 Mar - 15:34:52 10° N 15:38:43 14° NNE 15:42:30 10° NE daylight
04 Mar - 17:26:13 10° NW 17:33:20 41° NNE 17:40:05 10° E daylight
04 Mar - 19:19:48 10° WNW 19:27:09 63° SSW 19:34:00 10° SE visible
04 Mar - 21:16:26 10° WSW 21:20:59 18° SSW 21:25:22 10° SSE visible
